Regional Weather Roundup
Issued by NWS

Home | Current Version | Previous Version | Text Only | Print | Product List | Glossary On
Versions: 1 2 3 4 5 6 7 8 9 10 11 12 13 14 15 16 17 18 19 20 21 22 23 24 25 26 27 28 29 30 31 32 33 34 35 36 37 38 39 40 41 42 43 44 45 46 47 48 49 50
000
ASUS43 KLSX 052007
RWRMO

WEATHER SUMMARY FOR MISSOURI
NATIONAL WEATHER SERVICE SPRINGFIELD MO
300 PM CDT TUE MAY 05 2015

NOTE: "FAIR" INDICATES FEW OR NO CLOUDS BELOW 12,000 FEET WITH NO
       SIGNIFICANT WEATHER AND/OR OBSTRUCTIONS TO VISIBILITY.
       CURRENT SKY AND/OR WEATHER CONDITIONS ARE NOT AVAILABLE FOR
       CHILLICOTHE AND FARMINGTON.

MOZ001>031-035>038-043-044-053-054-052100-
...NORTHERN AND WESTERN MISSOURI...

CITY           SKY/WX    TMP DP  RH WIND       PRES   REMARKS
KANSAS CTY INT CLOUDY    80  56  43 SW12G21   30.06F
KANSAS C DTWN  PTSUNNY   80  54  40 S10       30.05F
LEE`S SUMMIT   PTSUNNY   78  54  43 S14G20    30.06F
ST JOSEPH      PTSUNNY   79  60  52 S14       30.05F
CHILLICOTHE      N/A     81  58  45 S9        30.08F
KIRKSVILLE     MOSUNNY   78  60  53 S12       30.12F

$$
MOZ066>068-077>081-088>096-101>105-052100-
...SOUTHWEST MISSOURI...

CITY           SKY/WX    TMP DP  RH WIND       PRES   REMARKS
SPRINGFIELD    PTSUNNY   77  59  53 S15       30.10F
JOPLIN         PTSUNNY   80  61  52 S13G23    30.06F

$$
MOZ032>034-039>042-045>050-055>058-069>072-052100-
...CENTRAL MISSOURI...

CITY           SKY/WX    TMP DP  RH WIND       PRES   REMARKS
COLUMBIA       PTSUNNY   80  57  45 S12       30.11F
JEFFERSON CITY PTSUNNY   83  54  36 S15G21    30.10S
ROLLA          PTSUNNY   80  60  50 SE15      30.12F
SEDALIA        PTSUNNY   80  60  50 E6        30.10F
WHITEMAN AFB   MOSUNNY   82  59  46 S12       30.06F
WARRENSBURG    PTSUNNY   82  54  36 S8        30.07F
OSAGE BEACH    CLOUDY    73  59  60 S8        30.12R

$$
MOZ051-052-059>065-052100-
...EAST CENTRAL MISSOURI...

CITY           SKY/WX    TMP DP  RH WIND       PRES   REMARKS
ST LOUIS INTL  CLOUDY    82  56  40 S9        30.15S
SPIRIT OF STL  PTSUNNY   80  56  43 S10G17    30.13S
ST CHARLES     PTSUNNY   82  56  40 S12       30.12F

$$
MOZ072>076-082>087-097>100-106>115-052100-
...SOUTH CENTRAL AND SOUTHEAST MISSOURI...

CITY           SKY/WX    TMP DP  RH WIND       PRES   REMARKS
CAPE GIRARDEAU CLOUDY    78  62  57 S13       30.15F
FARMINGTON     PTSUNNY   81  57  44 S13       30.20F
POPLAR BLUFF   PTSUNNY   84  58  40 SW14      30.14F
WEST PLAINS    MOSUNNY   80  55  42 S15       30.17F

$$


USA.gov is the U.S. government's official web portal to all federal, state and local government web resources and services.